[[{"header":{"parameterUnit":"m.s-1","parameterCategory":1,"la1":30.2992,"la2":30.254,"lo1":-89.0895,"lo2":-89.0443,"dy":0.0025,"dx":0.0025,"nx":19,"ny":19,"refTime":"2026-05-17T09:00:00:Z","depth":0,"parameterNumber":2,"parameterNumberName":"U-component_of_WINDS"},"data":[0,0,0,-3.4374,-3.4378,-3.4546,-3.4547,-3.4761,-3.4762,0,0,0,0,0,0,0,0,0,0,0,-3.4324,-3.4325,-3.4374,-3.4378,-3.4546,-3.4547,-3.476,-3.4762,0,0,0,0,0,0,0,0,0,0,0,-3.4323,-3.4325,-3.4326,-3.4379,-3.4546,-3.4547,-3.476,-3.4633,0,0,0,0,0,0,0,0,0,0,-3.447,-3.4423,-3.4324,-3.4327,-3.438,-3.4546,-3.4547,-3.4627,-3.4641,-3.4684,0,-3.4722,0,-3.4746,-3.4777,-3.4777,0,0,0,-3.4379,-3.4411,-3.4457,-3.4327,-3.4381,-3.4545,-3.447,-3.4635,-3.4651,-3.4702,-3.4725,-3.4733,-3.4749,-3.4778,-3.4779,-3.5024,-3.5025,0,0,-3.4369,-3.4353,-3.4446,-3.4467,-3.4441,-3.4465,-3.4475,-3.4645,-3.4668,-3.4726,-3.4738,-3.4753,-3.4779,-3.4781,-3.5023,-3.5024,0,0,0,-3.4342,-3.4347,-3.4389,-3.4459,-3.4489,-3.447,-3.4482,-3.466,-3.4675,-3.474,-3.4755,-3.4781,-3.4783,-3.5022,-3.5024,-3.5062,0,0,0,-3.4337,-3.4331,-3.4385,-3.4377,-3.4486,-3.4577,-3.4494,-3.4664,-3.4683,-3.4754,-3.4781,-3.4785,-3.5021,-3.5023,-3.5058,-3.5082,0,0,0,-3.4313,-3.4328,-3.4352,-3.4375,-3.4447,-3.4574,-3.4599,-3.4668,-3.4693,-3.4778,-3.4786,-3.502,-3.5022,-3.5055,-3.5077,-3.5141,0,0,0,-3.4283,-3.4385,-3.4353,-3.4473,-3.4446,-3.4598,-3.4598,-3.4712,-3.479,-3.4782,-3.5021,-3.5023,-3.5054,-3.5074,-3.5137,-3.519,-3.5211,0,0,-3.4402,-3.4398,-3.447,-3.4447,-3.46,-3.4573,-3.4733,-3.4819,-3.4842,-3.4962,-3.4968,-3.506,-3.5077,-3.514,-3.534,-3.5356,0,0,0,-3.4503,-3.4554,-3.4598,-3.4671,-3.474,-3.4801,-3.4865,-3.4898,-3.5,-3.4901,-3.5102,-3.5112,-3.515,-3.5176,-3.519,-3.5223,-3.5035,-3.5035,-3.5035,-3.4646,-3.4671,-3.4791,-3.4836,-3.4908,-3.4974,-3.5034,-3.5089,-3.5092,-3.514,-3.5174,-3.5292,-3.5322,-3.5333,-3.5367,-3.5207,-3.5207,-3.5207,-3.5207,-3.4822,-3.4897,-3.4902,-3.5019,-3.5045,-3.5144,-3.5213,-3.5212,-3.5308,-3.5268,-3.5303,-3.5254,-3.5351,-3.5382,-3.521,-3.521,-3.5209,-3.5209,-3.5209,-3.4916,-3.4957,-3.4995,-3.5105,-3.5187,-3.523,-3.5322,-3.5343,-3.5363,-3.5398,-3.5436,-3.5436,-3.5436,-3.5415,-3.5416,-3.5416,-3.5417,-3.5417,-3.5417,-3.4998,-3.5041,-3.5116,-3.5199,-3.5249,-3.5318,-3.5387,-3.5437,-3.5498,-3.5506,-3.5506,-3.5505,-3.5356,-3.5317,-3.5423,-3.5422,-3.5421,-3.5421,-3.542,-3.5162,-3.5129,-3.5245,-3.5295,-3.5395,-3.5475,-3.5502,-3.5602,-3.5647,-3.5692,-3.5685,-3.5572,-3.5569,-3.5558,-3.5526,-3.568,-3.568,-3.568,-3.568,-3.524,-3.5242,-3.5365,-3.5445,-3.5525,-3.5561,-3.5692,-3.5747,-3.5799,-3.5829,-3.581,-3.577,-3.5758,-3.5762,-3.5747,-3.5717,-3.5916,-3.5916,-3.5916,-3.5342,-3.5353,-3.5458,-3.5509,-3.5589,-3.5658,-3.5781,-3.5872,-3.5925,-3.5926,-3.5852,-3.5842,-3.5777,-3.5755,-3.5751,-3.5727,-3.5672,0,0]},{"header":{"parameterUnit":"m.s-1","parameterCategory":1,"la1":30.2992,"la2":30.254,"lo1":-89.0895,"lo2":-89.0443,"dy":0.0025,"dx":0.0025,"nx":19,"ny":19,"refTime":"2026-05-17T09:00:00:Z","depth":0,"parameterNumber":3,"parameterNumberName":"V-component_of_WINDS"},"data":[0,0,0,3.0479,3.0481,3.0576,3.0576,3.0695,3.0697,0,0,0,0,0,0,0,0,0,0,0,3.0451,3.0452,3.0479,3.0481,3.0576,3.0576,3.0695,3.0697,0,0,0,0,0,0,0,0,0,0,0,3.0451,3.0452,3.0453,3.0482,3.0576,3.0576,3.0695,3.0624,0,0,0,0,0,0,0,0,0,0,3.0532,3.0507,3.0452,3.0453,3.0482,3.0575,3.0576,3.062,3.0628,3.0653,0,3.0675,0,3.0688,3.0705,3.0705,0,0,0,3.048,3.0501,3.0526,3.0453,3.0483,3.0575,3.0533,3.0625,3.0634,3.0663,3.0677,3.0682,3.069,3.0705,3.0706,3.0853,3.0854,0,0,3.0475,3.0468,3.052,3.0532,3.0519,3.053,3.0536,3.063,3.0645,3.0678,3.0684,3.0692,3.0706,3.0707,3.0853,3.0853,0,0,0,3.0461,3.0465,3.0488,3.0527,3.0544,3.0532,3.0539,3.064,3.0649,3.0686,3.0694,3.0707,3.0708,3.0852,3.0853,3.0883,0,0,0,3.0458,3.0456,3.0485,3.0482,3.0543,3.0594,3.0547,3.0642,3.0653,3.0693,3.0707,3.071,3.0851,3.0852,3.0881,3.0898,0,0,0,3.0445,3.0455,3.0469,3.0481,3.0522,3.0593,3.0606,3.0645,3.0658,3.0705,3.071,3.0851,3.0852,3.0879,3.0895,3.0936,0,0,0,3.0429,3.0493,3.0469,3.0543,3.0521,3.0611,3.0606,3.0672,3.0717,3.0708,3.0851,3.0853,3.0878,3.0892,3.0933,3.0969,3.0984,0,0,3.0505,3.0502,3.0546,3.0528,3.062,3.0597,3.0694,3.074,3.075,3.0818,3.0822,3.0882,3.0894,3.0935,3.1067,3.1078,0,0,0,3.0568,3.0599,3.0625,3.0669,3.0707,3.0741,3.0773,3.0791,3.0849,3.0784,3.0908,3.0916,3.094,3.0957,3.0967,3.0988,3.0861,3.086,3.086,3.0665,3.0676,3.075,3.0773,3.0815,3.0849,3.0884,3.0913,3.091,3.0939,3.0959,3.1038,3.1058,3.1066,3.1088,3.0979,3.0979,3.098,3.098,3.0777,3.0824,3.0822,3.0893,3.0905,3.0964,3.0999,3.0996,3.1052,3.1023,3.1045,3.1012,3.1078,3.1098,3.0982,3.0982,3.0981,3.0981,3.0981,3.0842,3.0867,3.0888,3.0953,3.1002,3.1022,3.1078,3.1085,3.1093,3.1114,3.1137,3.1137,3.1137,3.1125,3.1125,3.1125,3.1126,3.1126,3.1126,3.0901,3.0924,3.0971,3.1018,3.1048,3.1088,3.1124,3.1153,3.1186,3.1188,3.1188,3.1183,3.1083,3.1057,3.113,3.113,3.1129,3.1129,3.1128,3.1011,3.0988,3.1059,3.1089,3.1147,3.1195,3.1205,3.1263,3.1288,3.1315,3.1306,3.1231,3.1227,3.1219,3.1198,3.1303,3.1303,3.1303,3.1303,3.1065,3.1065,3.1141,3.1189,3.1236,3.1253,3.1333,3.1362,3.1388,3.1404,3.139,3.1364,3.1355,3.1356,3.1346,3.1326,3.1461,3.1462,3.1462,3.1134,3.1139,3.1206,3.1233,3.1279,3.1318,3.1394,3.1448,3.1472,3.1468,3.1417,3.1411,3.1367,3.1353,3.1346,3.133,3.1294,0,0]}]]